Погода в Хуайхуа

Китай     27°32′44″N   109°58′16″E
темп.,
°C
ветер,
м/с
пор.,
м/с
влажн.,
%
обл.,
%
осадки,
мм/ч
давл.,
гПа
погр.,
м
17 января, пн
пн1723:00+5ссз1295100 3.5 1029253
02:00+5ссз1296100 5.6 1027236
05:00+5ссз1296100 1.5 1027167
08:00+5св1196100 3.7 1029120
11:00+7с1287100 0.1 1030435
14:00+8ссв2382100 0.1 1027641
17:00+9в128283 0.0 1027410
20:00+6вюв119215 0.0 102810
18 января, вт
вт1823:00+6св11948 0.0 102910
02:00+5св119520 0.0 102810
05:00+5с119521 0.0 102710
08:00+5с009554 0.0 102816
11:00+10зсз007972 0.0 1028415
14:00+12сз116992 0.0 1024889
17:00+12ююз006872 0.0 1023784
20:00+9юз11810 0.0 102510
19 января, ср
ср1923:00+8юз11860 0.0 102511
02:00+7ю11890 0.0 102410
05:00+6ююв119293 0.0 102410
08:00+6юв119231 0.0 102510
11:00+12св1167100 0.0 1025464
14:00+15ссв1151100 0.0 1021932
17:00+14с235999 0.0 1019244
20:00+10ссв117689 0.0 102113
20 января, чт
чт2023:00+9св118092 0.0 102111
02:00+9св1181100 0.0 102011
05:00+9св1184100 0.0 101923
08:00+9св1287100 0.0 102077
11:00+10ссв1179100 0.0 1021251
14:00+10ссв2279100 0.0 1018360
17:00+10ссв2388100 0.0 1018230
20:00+9с1393100 0.1 1019201
21 января, пт
пт2123:00+9с1394100 0.1 1019195
02:00+9с1296100 0.7 1018210
05:00+8ссз2396100 3.5 1018263
08:00+8ссз1397100 6.2 1019234
11:00+8с1296100 2.2 1020246
14:00+9с1294100 2.9 1017322
17:00+9с2495100 1.8 1016341
20:00+8ссв2497100 6.0 1017329